Location: *
(47.2969°N, 10.2930°E)
Time: 13:16:37
(UTC+00:00)

Cosmos 1300 - Pass Details

Date: 09 April 2020
Orbit: 511 x 515 km, 82.5° (Epoch: 02 June)

Event Time Altitude Azimuth Distance (km) Brightness Sun altitude
Exits shadow 18:43:37 - 146° (SE) 2,098 5.3 -7.9°
Reaches altitude 10° 18:44:42 10° 137° (SE) 1,737 4.8 -8.1°
Maximum altitude 18:47:34 21° 88° (E) 1,217 4.0 -8.5°
Drops below altitude 10° 18:50:26 10° 39° (NE) 1,751 5.2 -9.0°
Sets 18:52:57 0° 23° (NNE) 2,644 6.3 -9.4°
